Terminal Aerodrome Forecast
Issued by NWS

Home | Current Version | Previous Version | Text Only | Print | Product List | Glossary On
Versions: 1 2 3 4 5 6 7 8 9 10 11 12 13 14 15 16 17 18 19 20 21 22 23 24 25 26 27 28 29 30 31 32 33 34 35 36 37 38 39
000
FTAK31 PANC 181742
TAFASN
TAF
PASN 181742Z 1818/1918 35009KT 5SM BR OVC003
      TEMPO 1818/1822 2SM BR OVC008
     FM182200 32010KT P6SM VCSH BKN008
     FM190300 33010KT P6SM SCT008 BKN015
     FM191200 33012KT 3SM -SHSN BR OVC008=

USA.gov is the U.S. government's official web portal to all federal, state and local government web resources and services.